Regional Weather Roundup
Issued by NWS

Home | Current Version | Previous Version | Text Only | Print | Product List | Glossary Off
Versions: 1 2 3 4 5 6 7 8 9 10 11 12 13 14 15 16 17 18 19 20 21 22 23 24 25 26 27 28 29 30 31 32 33 34 35 36 37 38 39 40 41 42 43 44 45 46 47 48 49 50

000
ASUS45 KSLC 231110
RWRUT

UTAH REGIONAL WEATHER ROUNDUP
NATIONAL WEATHER SERVICE SALT LAKE CITY UT
500 AM MDT SAT MAY 23 2015

UTZ001>011-023>025-231200-

NORTHERN UTAH

CITY           SKY/WX    TMP DP  RH WIND       PRES   REMARKS
BRIGHAM CITY   CLOUDY    52  47  86 NW5       29.92S
HILL AFB       LGT RAIN  47  47  99 E7        29.92F
LOGAN          CLOUDY    50  47  89 S3        29.92S
OGDEN          LGT RAIN  49  46  90 SE7       29.91F
PROVO AIRPORT  CLOUDY    46  43  87 E6        29.95R
SALT LAKE CITY LGT RAIN  50  47  89 S9        29.93R
VERNAL         CLEAR     43  41  93 NW6       29.95F
WENDOVER       CLOUDY    54  45  71 W9        29.90S
HEBER CITY     CLOUDY    43  39  87 CALM      29.93F
WEST JORDAN    CLOUDY    46  46 100 S10       29.94S

$$

UTZ012>022-026-027-231200-

SOUTHERN/CENTRAL UTAH

CITY           SKY/WX    TMP DP  RH WIND       PRES   REMARKS
BLANDING       CLEAR     41  30  65 CALM      30.07F
BRYCE CANYON   LGT RAIN  36  35  96 SE6       29.99S VSB 3/4 WCI  31
CEDAR CITY     CLOUDY    43  41  93 SW6       29.96S
DELTA          CLOUDY    46  43  90 S7        29.93F
HANKSVILLE     CLOUDY    45  36  70 CALM      29.93F
MILFORD        CLOUDY    46  43  89 S9        29.94S
MOAB/CYNLANDS  MOCLDY    50  40  68 SE3       29.90S
PRICE          MOCLDY    44  37  76 CALM      29.92F
ST GEORGE      CLOUDY    55  41  58 CALM      29.97S
KANAB          CLOUDY    43  43 100 S3        30.04S

$$

REGIONAL REPORTS     COLORADO/ARIZONA

CITY           SKY/WX    TMP DP  RH WIND       PRES   REMARKS
CRAIG, CO      PTCLDY    39  35  86 E3        30.00S
GRAND JUNCTION PTCLDY    44  41  89 SE9       29.95S
RIFLE          MOCLDY    46  41  82 CALM      29.99F
MONTROSE       PTCLDY    46  36  68 S8        30.00F
CORTEZ         MOCLDY    37  35  92 NE9       30.02F WCI  30
PAGE, AZ       CLOUDY    49  39  68 S5        29.97S
GRAND CANYON   CLOUDY    33  33 100 CALM      30.04S
KINGMAN        PTCLDY    48  39  71 SE10      29.97S
FLAGSTAFF      CLOUDY    37  33  85 SW3       30.05S

$$

REGIONAL REPORTS    NEVADA/IDAHO/WYOMING

CITY           SKY/WX    TMP DP  RH WIND       PRES   REMARKS
LAS VEGAS, NV  PTCLDY    60  42  51 S8        29.87S
ELY            CLOUDY    45  39  79 CALM      29.97F
ELKO           LGT RAIN  48  45  89 S3        29.95F
POCATELLO, ID  LGT RAIN  51  51 100 CALM      29.91F
BURLEY         CLOUDY    48  46  93 W3        29.89S
EVANSTON, WY   CLOUDY    38  37  97 CALM      29.96F
ROCK SPRINGS   PTCLDY    39  36  89 SE7       29.98F WCI  34
KEMMERER       MOCLDY    37  37 100 CALM      29.97F

$$


USA.gov is the U.S. government's official web portal to all federal, state and local government web resources and services.